QPF
0.00 0.00 0.00 0.00 0.00 0.01 0.01 0.02 0.04 0.05 0.06 0.09 0.11 0.13 0.13 0.11 0.07 0.05 0.04 0.04 0.04 0.06 0.09 0.08 0.12 0.10 0.11 0.12 0.11 0.12 0.12 0.11 0.10 0.11 0.12 0.11 0.08 0.06 0.05 0.05 0.06 0.06 0.07
0.00 0.00 0.00 0.00 0.00 0.00 0.01 0.02 0.03 0.04 0.05 0.08 0.13 0.15 0.15 0.10 0.06 0.05 0.06 0.05 0.04 0.05 0.08 0.11 0.10 0.10 0.11 0.11 0.11 0.12 0.11 0.09 0.09 0.11 0.12 0.11 0.11 0.10 0.07 0.05 0.05 0.05 0.07
0.00 0.00 0.00 0.00 0.00 0.00 0.01 0.02 0.04 0.04 0.05 0.05 0.07 0.11 0.10 0.07 0.05 0.04 0.05 0.04 0.02 0.03 0.06 0.09 0.09 0.09 0.10 0.11 0.11 0.10 0.10 0.11 0.11 0.10 0.10 0.10 0.11 0.10 0.08 0.06 0.06 0.08 0.10
0.00 0.00 0.00 0.00 0.00 0.00 0.00 0.01 0.03 0.04 0.04 0.04 0.04 0.05 0.08 0.08 0.06 0.04 0.05 0.04 0.02 0.01 0.03 0.06 0.07 0.08 0.09 0.10 0.08 0.08 0.08 0.10 0.10 0.11 0.09 0.08 0.10 0.09 0.08 0.09 0.09 0.10 0.10
0.00 0.00 0.00 0.00 0.00 0.00 0.00 0.01 0.02 0.03 0.03 0.02 0.03 0.04 0.04 0.05 0.05 0.04 0.05 0.04 0.03 0.02 0.02 0.05 0.07 0.09 0.09 0.09 0.09 0.10 0.07 0.07 0.08 0.10 0.09 0.10 0.10 0.10 0.10 0.11 0.12 0.13 0.11
0.00 0.00 0.00 0.00 0.00 0.00 0.00 0.00 0.01 0.01 0.01 0.01 0.02 0.03 0.05 0.05 0.05 0.06 0.07 0.05 0.04 0.03 0.02 0.04 0.08 0.10 0.11 0.10 0.09 0.08 0.08 0.07 0.07 0.07 0.08 0.09 0.10 0.11 0.12 0.13 0.11 0.10 0.09
0.00 0.00 0.00 0.00 0.00 0.00 0.00 0.00 0.00 0.01 0.01 0.01 0.01 0.03 0.03 0.03 0.03 0.04 0.05 0.05 0.04 0.04 0.04 0.06 0.08 0.10 0.11 0.09 0.08 0.07 0.06 0.07 0.06 0.06 0.06 0.06 0.08 0.10 0.12 0.12 0.11 0.09 0.08
0.00 0.00 0.00 0.00 0.00 0.00 0.00 0.00 0.00 0.01 0.02 0.01 0.01 0.03 0.03 0.02 0.02 0.03 0.03 0.04 0.04 0.05 0.05 0.04 0.05 0.08 0.10 0.09 0.09 0.06 0.06 0.07 0.06 0.05 0.07 0.06 0.06 0.08 0.10 0.12 0.10 0.08 0.08
0.00 0.00 0.00 0.00 0.00 0.00 0.00 0.00 0.00 0.01 0.02 0.01 0.01 0.02 0.02 0.02 0.02 0.03 0.02 0.03 0.04 0.04 0.03 0.03 0.04 0.06 0.08 0.10 0.11 0.08 0.07 0.07 0.05 0.05 0.06 0.06 0.06 0.07 0.07 0.08 0.09 0.09 0.08
0.00 0.00 0.00 0.00 0.00 0.00 0.00 0.00 0.00 0.00 0.00 0.00 0.00 0.01 0.01 0.02 0.02 0.02 0.02 0.03 0.02 0.02 0.04 0.04 0.04 0.04 0.04 0.05 0.07 0.06 0.05 0.06 0.06 0.06 0.06 0.07 0.05 0.07 0.08 0.08 0.09 0.10 0.09
0.01 0.00 0.00 0.00 0.00 0.00 0.00 0.00 0.00 0.00 0.00 0.00 0.00 0.01 0.01 0.02 0.03 0.03 0.03 0.02 0.02 0.02 0.03 0.04 0.03 0.03 0.02 0.03 0.04 0.03 0.05 0.04 0.04 0.05 0.05 0.05 0.06 0.07 0.07 0.09 0.09 0.10 0.11
0.01 0.01 0.00 0.00 0.00 0.00 0.01 0.01 0.01 0.00 0.00 0.00 0.01 0.02 0.02 0.02 0.03 0.04 0.04 0.02 0.02 0.02 0.03 0.03 0.03 0.03 0.03 0.04 0.03 0.02 0.04 0.03 0.03 0.04 0.05 0.05 0.07 0.08 0.07 0.08 0.08 0.09 0.10
0.00 0.00 0.00 0.00 0.00 0.01 0.01 0.01 0.01 0.00 0.00 0.01 0.01 0.01 0.02 0.02 0.03 0.03 0.02 0.02 0.02 0.03 0.03 0.03 0.03 0.03 0.03 0.04 0.03 0.03 0.04 0.03 0.03 0.04 0.05 0.06 0.08 0.07 0.07 0.08 0.08 0.08 0.08
0.00 0.00 0.00 0.00 0.00 0.00 0.01 0.01 0.01 0.01 0.01 0.01 0.01 0.02 0.02 0.02 0.01 0.01 0.01 0.01 0.02 0.02 0.02 0.02 0.02 0.02 0.02 0.02 0.02 0.03 0.04 0.04 0.03 0.04 0.05 0.05 0.07 0.09 0.09 0.08 0.08 0.08 0.09
0.00 0.00 0.00 0.00 0.01 0.01 0.01 0.00 0.01 0.01 0.02 0.02 0.02 0.02 0.02 0.02 0.01 0.01 0.01 0.02 0.02 0.01 0.02 0.02 0.01 0.01 0.01 0.01 0.01 0.02 0.02 0.03 0.02 0.03 0.04 0.04 0.04 0.05 0.06 0.06 0.07 0.06 0.07
0.00 0.00 0.00 0.00 0.00 0.01 0.02 0.01 0.01 0.01 0.02 0.03 0.02 0.02 0.02 0.01 0.02 0.02 0.03 0.03 0.03 0.02 0.03 0.01 0.01 0.01 0.00 0.00 0.00 0.00 0.01 0.02 0.02 0.03 0.03 0.02 0.01 0.02 0.02 0.03 0.04 0.04 0.04
0.01 0.00 0.00 0.00 0.01 0.01 0.02 0.03 0.02 0.02 0.02 0.02 0.02 0.03 0.03 0.02 0.02 0.02 0.03 0.03 0.02 0.03 0.03 0.02 0.02 0.01 0.01 0.00 0.00 0.00 0.01 0.01 0.01 0.02 0.02 0.01 0.01 0.01 0.01 0.01 0.01 0.01 0.01
0.01 0.01 0.01 0.01 0.01 0.01 0.02 0.02 0.02 0.02 0.02 0.02 0.03 0.04 0.03 0.02 0.02 0.02 0.02 0.02 0.03 0.03 0.03 0.03 0.02 0.02 0.01 0.00 0.01 0.01 0.00 0.01 0.01 0.01 0.02 0.02 0.02 0.01 0.01 0.01 0.01 0.01 0.01
0.01 0.01 0.01 0.00 0.00 0.01 0.01 0.01 0.02 0.02 0.03 0.03 0.04 0.04 0.04 0.03 0.02 0.02 0.02 0.02 0.03 0.03 0.03 0.03 0.03 0.02 0.02 0.01 0.01 0.02 0.01 0.01 0.01 0.01 0.01 0.01 0.02 0.01 0.01 0.01 0.02 0.02 0.02
0.01 0.01 0.00 0.01 0.00 0.01 0.01 0.01 0.02 0.03 0.03 0.04 0.06 0.06 0.05 0.04 0.03 0.03 0.02 0.02 0.03 0.03 0.04 0.04 0.03 0.03 0.02 0.01 0.01 0.01 0.02 0.01 0.01 0.01 0.02 0.01 0.01 0.01 0.00 0.02 0.03 0.02 0.02
0.00 0.00 0.00 0.00 0.01 0.01 0.01 0.01 0.02 0.04 0.05 0.06 0.07 0.07 0.07 0.04 0.03 0.03 0.03 0.04 0.04 0.04 0.05 0.05 0.04 0.03 0.02 0.02 0.02 0.02 0.02 0.02 0.02 0.02 0.02 0.02 0.01 0.01 0.01 0.01 0.02 0.02 0.02
0.00 0.00 0.00 0.00 0.01 0.01 0.01 0.02 0.03 0.04 0.05 0.06 0.07 0.05 0.03 0.02 0.02 0.02 0.02 0.03 0.03 0.03 0.04 0.03 0.03 0.02 0.02 0.03 0.02 0.02 0.02 0.02 0.02 0.02 0.02 0.03 0.02 0.01 0.01 0.01 0.01 0.02 0.01
0.00 0.00 0.00 0.00 0.01 0.01 0.01 0.02 0.03 0.04 0.04 0.06 0.06 0.03 0.02 0.02 0.02 0.02 0.02 0.03 0.03 0.03 0.03 0.03 0.02 0.02 0.02 0.03 0.02 0.01 0.01 0.01 0.02 0.01 0.02 0.02 0.01 0.01 0.01 0.00 0.00 0.01 0.01
0.01 0.01 0.01 0.01 0.01 0.01 0.01 0.01 0.02 0.03 0.03 0.04 0.07 0.05 0.03 0.02 0.02 0.02 0.02 0.02 0.03 0.03 0.02 0.02 0.02 0.02 0.03 0.03 0.03 0.02 0.02 0.02 0.02 0.01 0.02 0.02 0.02 0.01 0.01 0.01 0.01 0.01 0.01
0.01 0.01 0.01 0.01 0.01 0.01 0.01 0.01 0.02 0.02 0.03 0.04 0.07 0.08 0.06 0.03 0.03 0.02 0.02 0.02 0.02 0.02 0.02 0.02 0.02 0.03 0.03 0.03 0.03 0.04 0.03 0.02 0.02 0.03 0.04 0.04 0.03 0.01 0.01 0.01 0.01 0.01 0.02
0.01 0.01 0.01 0.01 0.01 0.01 0.01 0.01 0.02 0.03 0.03 0.04 0.06 0.06 0.05 0.04 0.04 0.05 0.05 0.04 0.03 0.03 0.04 0.04 0.03 0.04 0.05 0.05 0.04 0.03 0.03 0.02 0.02 0.03 0.04 0.04 0.04 0.03 0.02 0.02 0.03 0.03 0.03
MSLP
1012.69 1013.02 1013.24 1013.36 1013.41 1013.43 1013.46 1013.52 1013.63 1013.79 1013.98 1014.18 1014.38 1014.56 1014.72 1014.86 1015.00 1015.15 1015.32 1015.51 1015.74 1016.00 1016.27 1016.54 1016.81 1017.07 1017.31 1017.52 1017.71 1017.88 1018.02 1018.11 1018.14 1018.11 1018.01 1017.82 1017.58 1017.27 1016.95 1016.64 1016.38 1016.18 1016.07
1012.51 1012.96 1013.26 1013.41 1013.47 1013.48 1013.49 1013.55 1013.68 1013.89 1014.15 1014.45 1014.74 1015.00 1015.21 1015.36 1015.47 1015.56 1015.65 1015.76 1015.91 1016.10 1016.32 1016.55 1016.80 1017.04 1017.27 1017.48 1017.67 1017.85 1018.00 1018.14 1018.23 1018.26 1018.23 1018.11 1017.90 1017.61 1017.26 1016.88 1016.51 1016.18 1015.92
1012.08 1012.66 1013.06 1013.29 1013.38 1013.39 1013.40 1013.45 1013.59 1013.83 1014.15 1014.52 1014.88 1015.21 1015.46 1015.63 1015.73 1015.78 1015.81 1015.86 1015.95 1016.09 1016.27 1016.49 1016.71 1016.94 1017.15 1017.35 1017.54 1017.71 1017.89 1018.05 1018.20 1018.30 1018.35 1018.32 1018.18 1017.95 1017.62 1017.22 1016.78 1016.35 1015.96
1011.36 1012.09 1012.62 1012.95 1013.11 1013.16 1013.17 1013.23 1013.38 1013.63 1013.98 1014.39 1014.81 1015.18 1015.47 1015.65 1015.75 1015.78 1015.79 1015.80 1015.85 1015.96 1016.12 1016.32 1016.54 1016.76 1016.96 1017.15 1017.32 1017.49 1017.66 1017.84 1018.03 1018.20 1018.33 1018.38 1018.34 1018.19 1017.91 1017.53 1017.08 1016.59 1016.11
1010.38 1011.26 1011.94 1012.40 1012.65 1012.76 1012.82 1012.89 1013.04 1013.31 1013.67 1014.11 1014.55 1014.95 1015.27 1015.47 1015.57 1015.59 1015.58 1015.57 1015.61 1015.70 1015.85 1016.05 1016.27 1016.49 1016.69 1016.86 1017.01 1017.16 1017.32 1017.50 1017.70 1017.92 1018.11 1018.26 1018.31 1018.25 1018.06 1017.73 1017.30 1016.79 1016.26
1009.20 1010.22 1011.04 1011.64 1012.01 1012.22 1012.33 1012.44 1012.62 1012.90 1013.28 1013.72 1014.18 1014.60 1014.93 1015.14 1015.24 1015.26 1015.23 1015.22 1015.24 1015.33 1015.48 1015.69 1015.92 1016.14 1016.34 1016.50 1016.62 1016.74 1016.87 1017.03 1017.23 1017.46 1017.70 1017.91 1018.05 1018.08 1017.97 1017.72 1017.35 1016.87 1016.33
1007.90 1009.03 1009.98 1010.71 1011.22 1011.53 1011.74 1011.91 1012.13 1012.44 1012.83 1013.29 1013.76 1014.19 1014.52 1014.74 1014.83 1014.84 1014.81 1014.77 1014.79 1014.87 1015.03 1015.24 1015.48 1015.71 1015.90 1016.06 1016.17 1016.25 1016.35 1016.47 1016.64 1016.86 1017.11 1017.35 1017.55 1017.66 1017.64 1017.48 1017.18 1016.76 1016.26
1006.59 1007.78 1008.83 1009.68 1010.30 1010.73 1011.03 1011.29 1011.57 1011.92 1012.35 1012.83 1013.32 1013.75 1014.09 1014.30 1014.39 1014.39 1014.33 1014.28 1014.28 1014.36 1014.51 1014.73 1014.97 1015.21 1015.41 1015.56 1015.66 1015.72 1015.77 1015.85 1015.98 1016.16 1016.39 1016.64 1016.87 1017.03 1017.09 1017.02 1016.80 1016.46 1016.02
1005.37 1006.57 1007.66 1008.58 1009.30 1009.82 1010.22 1010.57 1010.93 1011.34 1011.82 1012.33 1012.84 1013.30 1013.64 1013.85 1013.93 1013.91 1013.84 1013.77 1013.74 1013.80 1013.94 1014.16 1014.42 1014.67 1014.88 1015.03 1015.12 1015.16 1015.18 1015.22 1015.29 1015.43 1015.62 1015.85 1016.08 1016.28 1016.39 1016.39 1016.27 1016.02 1015.66
1004.32 1005.47 1006.55 1007.48 1008.23 1008.82 1009.30 1009.72 1010.15 1010.63 1011.17 1011.74 1012.29 1012.77 1013.14 1013.36 1013.44 1013.41 1013.32 1013.23 1013.18 1013.22 1013.35 1013.57 1013.83 1014.10 1014.33 1014.49 1014.59 1014.62 1014.62 1014.61 1014.64 1014.72 1014.86 1015.05 1015.27 1015.48 1015.63 1015.69 1015.64 1015.48 1015.22
1003.54 1004.56 1005.55 1006.42 1007.14 1007.73 1008.23 1008.70 1009.19 1009.74 1010.34 1010.97 1011.58 1012.11 1012.51 1012.77 1012.87 1012.85 1012.76 1012.66 1012.61 1012.64 1012.76 1012.97 1013.24 1013.52 1013.77 1013.96 1014.07 1014.11 1014.10 1014.07 1014.05 1014.08 1014.17 1014.32 1014.51 1014.70 1014.87 1014.98 1014.99 1014.91 1014.73
1003.04 1003.88 1004.70 1005.43 1006.05 1006.58 1007.05 1007.53 1008.06 1008.65 1009.31 1010.00 1010.67 1011.26 1011.73 1012.04 1012.19 1012.21 1012.15 1012.07 1012.02 1012.05 1012.18 1012.39 1012.67 1012.96 1013.23 1013.45 1013.58 1013.63 1013.62 1013.58 1013.54 1013.53 1013.57 1013.67 1013.82 1013.99 1014.16 1014.29 1014.35 1014.33 1014.22
1002.83 1003.44 1004.03 1004.56 1005.02 1005.42 1005.82 1006.26 1006.78 1007.40 1008.10 1008.85 1009.59 1010.26 1010.80 1011.19 1011.41 1011.50 1011.49 1011.46 1011.44 1011.48 1011.62 1011.84 1012.12 1012.42 1012.71 1012.94 1013.10 1013.17 1013.16 1013.11 1013.06 1013.02 1013.02 1013.08 1013.20 1013.34 1013.50 1013.64 1013.72 1013.75 1013.69
1002.89 1003.24 1003.57 1003.86 1004.10 1004.34 1004.63 1004.99 1005.48 1006.09 1006.82 1007.61 1008.41 1009.15 1009.78 1010.26 1010.57 1010.75 1010.82 1010.85 1010.88 1010.95 1011.10 1011.33 1011.61 1011.91 1012.20 1012.43 1012.60 1012.68 1012.68 1012.64 1012.57 1012.51 1012.49 1012.52 1012.60 1012.72 1012.86 1012.99 1013.08 1013.13 1013.12
1003.19 1003.28 1003.34 1003.37 1003.40 1003.46 1003.61 1003.87 1004.30 1004.89 1005.62 1006.43 1007.27 1008.08 1008.78 1009.35 1009.76 1010.03 1010.19 1010.29 1010.37 1010.48 1010.64 1010.87 1011.13 1011.42 1011.68 1011.91 1012.06 1012.14 1012.14 1012.10 1012.03 1011.97 1011.93 1011.94 1011.99 1012.08 1012.20 1012.31 1012.41 1012.46 1012.46
1003.65 1003.51 1003.34 1003.15 1002.98 1002.88 1002.90 1003.07 1003.43 1003.98 1004.68 1005.50 1006.36 1007.20 1007.96 1008.59 1009.08 1009.44 1009.67 1009.84 1009.97 1010.10 1010.26 1010.47 1010.70 1010.94 1011.17 1011.36 1011.48 1011.54 1011.54 1011.49 1011.42 1011.35 1011.31 1011.30 1011.34 1011.41 1011.50 1011.60 1011.67 1011.72 1011.72
1004.22 1003.90 1003.55 1003.21 1002.90 1002.68 1002.61 1002.71 1003.01 1003.51 1004.18 1004.97 1005.81 1006.65 1007.43 1008.10 1008.63 1009.04 1009.32 1009.53 1009.68 1009.82 1009.97 1010.13 1010.31 1010.50 1010.66 1010.80 1010.88 1010.91 1010.89 1010.83 1010.76 1010.70 1010.65 1010.64 1010.66 1010.72 1010.78 1010.85 1010.90 1010.92 1010.90
1004.82 1004.41 1003.98 1003.55 1003.18 1002.92 1002.80 1002.86 1003.12 1003.58 1004.19 1004.93 1005.73 1006.53 1007.27 1007.93 1008.46 1008.87 1009.17 1009.38 1009.53 1009.65 1009.76 1009.87 1009.99 1010.10 1010.19 1010.26 1010.30 1010.29 1010.25 1010.18 1010.11 1010.05 1010.01 1010.00 1010.01 1010.04 1010.08 1010.11 1010.13 1010.11 1010.05
1005.41 1004.99 1004.55 1004.14 1003.79 1003.54 1003.44 1003.50 1003.74 1004.16 1004.72 1005.38 1006.09 1006.80 1007.47 1008.06 1008.54 1008.91 1009.18 1009.36 1009.48 1009.56 1009.62 1009.67 1009.72 1009.77 1009.79 1009.80 1009.79 1009.75 1009.69 1009.62 1009.55 1009.49 1009.46 1009.44 1009.44 1009.45 1009.45 1009.44 1009.40 1009.33 1009.22
1005.96 1005.59 1005.23 1004.90 1004.64 1004.47 1004.42 1004.52 1004.76 1005.14 1005.62 1006.18 1006.78 1007.37 1007.92 1008.40 1008.78 1009.07 1009.28 1009.41 1009.48 1009.51 1009.53 1009.53 1009.52 1009.51 1009.49 1009.46 1009.42 1009.36 1009.29 1009.21 1009.15 1009.09 1009.05 1009.02 1009.00 1008.97 1008.93 1008.87 1008.77 1008.63 1008.45
1006.46 1006.21 1005.97 1005.77 1005.64 1005.58 1005.62 1005.75 1006.00 1006.33 1006.73 1007.17 1007.63 1008.07 1008.47 1008.81 1009.07 1009.26 1009.38 1009.44 1009.46 1009.46 1009.44 1009.41 1009.38 1009.34 1009.31 1009.26 1009.20 1009.14 1009.07 1009.00 1008.94 1008.88 1008.82 1008.77 1008.71 1008.64 1008.54 1008.41 1008.23 1008.01 1007.75
1006.95 1006.82 1006.73 1006.68 1006.68 1006.74 1006.86 1007.03 1007.26 1007.54 1007.84 1008.15 1008.45 1008.73 1008.96 1009.14 1009.27 1009.35 1009.39 1009.39 1009.37 1009.34 1009.32 1009.29 1009.27 1009.24 1009.22 1009.19 1009.15 1009.10 1009.04 1008.98 1008.91 1008.83 1008.75 1008.66 1008.55 1008.41 1008.24 1008.03 1007.77 1007.46 1007.11
1007.43 1007.44 1007.49 1007.58 1007.69 1007.84 1008.01 1008.20 1008.39 1008.59 1008.78 1008.94 1009.08 1009.19 1009.26 1009.29 1009.29 1009.26 1009.23 1009.19 1009.15 1009.13 1009.12 1009.13 1009.15 1009.18 1009.20 1009.21 1009.21 1009.18 1009.14 1009.08 1008.99 1008.89 1008.76 1008.61 1008.43 1008.22 1007.97 1007.67 1007.33 1006.94 1006.51
1007.94 1008.07 1008.22 1008.41 1008.61 1008.80 1008.99 1009.15 1009.29 1009.38 1009.44 1009.46 1009.43 1009.38 1009.29 1009.18 1009.07 1008.97 1008.88 1008.81 1008.79 1008.79 1008.84 1008.91 1009.00 1009.09 1009.18 1009.26 1009.30 1009.31 1009.28 1009.20 1009.09 1008.94 1008.75 1008.53 1008.28 1007.98 1007.65 1007.27 1006.85 1006.39 1005.90
1008.47 1008.67 1008.91 1009.15 1009.38 1009.58 1009.74 1009.85 1009.90 1009.88 1009.80 1009.68 1009.50 1009.30 1009.08 1008.86 1008.65 1008.49 1008.36 1008.30 1008.29 1008.35 1008.45 1008.60 1008.77 1008.95 1009.11 1009.25 1009.33 1009.37 1009.34 1009.25 1009.09 1008.89 1008.63 1008.34 1008.00 1007.62 1007.22 1006.78 1006.30 1005.80 1005.28
1008.96 1009.22 1009.50 1009.76 1009.98 1010.16 1010.26 1010.29 1010.24 1010.11 1009.91 1009.65 1009.35 1009.02 1008.69 1008.38 1008.11 1007.90 1007.76 1007.70 1007.72 1007.82 1007.99 1008.21 1008.45 1008.70 1008.93 1009.11 1009.22 1009.27 1009.23 1009.11 1008.91 1008.64 1008.32 1007.95 1007.54 1007.11 1006.65 1006.18 1005.68 1005.17 1004.65
Thickness
5829 5828 5825 5822 5818 5813 5810 5807 5804 5803 5802 5799 5797 5795 5794 5795 5796 5795 5794 5792 5790 5789 5787 5785 5783 5781 5779 5776 5775 5772 5769 5768 5769 5765 5762 5765 5770 5769 5768 5767 5765 5764 5762
5830 5828 5826 5824 5819 5814 5811 5808 5805 5804 5802 5801 5799 5797 5796 5796 5796 5795 5793 5792 5791 5789 5788 5784 5782 5780 5778 5776 5774 5772 5768 5767 5769 5763 5757 5753 5757 5763 5768 5766 5764 5763 5761
5832 5829 5827 5825 5822 5817 5813 5811 5808 5806 5804 5803 5801 5798 5797 5795 5794 5792 5791 5791 5791 5789 5787 5785 5782 5780 5778 5775 5773 5772 5768 5764 5767 5767 5759 5750 5746 5752 5760 5762 5762 5761 5759
5840 5835 5831 5827 5825 5822 5819 5815 5810 5807 5805 5804 5800 5796 5791 5789 5790 5791 5791 5791 5790 5788 5786 5784 5782 5779 5778 5775 5774 5773 5771 5767 5763 5764 5765 5762 5758 5749 5747 5754 5758 5759 5757
5846 5840 5836 5832 5830 5827 5822 5817 5812 5808 5806 5804 5801 5797 5793 5792 5792 5792 5791 5789 5789 5788 5786 5784 5781 5779 5777 5775 5774 5772 5770 5768 5764 5762 5762 5761 5759 5757 5748 5744 5749 5752 5754
5851 5846 5842 5837 5832 5830 5825 5819 5813 5808 5806 5803 5801 5797 5794 5792 5790 5789 5787 5787 5787 5787 5786 5784 5781 5779 5777 5775 5773 5771 5769 5767 5765 5764 5762 5759 5755 5753 5750 5746 5745 5746 5750
5853 5847 5841 5836 5833 5830 5826 5821 5814 5808 5806 5803 5800 5798 5795 5793 5790 5788 5787 5786 5785 5784 5783 5783 5781 5779 5777 5775 5773 5770 5768 5767 5764 5762 5761 5760 5758 5758 5754 5749 5746 5745 5747
5855 5849 5845 5840 5835 5832 5827 5822 5815 5810 5807 5804 5801 5799 5797 5794 5792 5790 5789 5787 5785 5785 5785 5783 5780 5778 5776 5775 5772 5769 5767 5766 5763 5762 5760 5759 5759 5758 5756 5751 5745 5740 5740
5856 5851 5848 5844 5840 5834 5829 5824 5817 5811 5808 5805 5802 5799 5797 5795 5793 5792 5790 5788 5787 5786 5785 5782 5779 5777 5775 5773 5770 5767 5765 5764 5761 5760 5758 5756 5757 5757 5756 5754 5750 5741 5732
5856 5852 5848 5845 5841 5837 5832 5827 5821 5814 5810 5806 5803 5800 5798 5796 5793 5791 5789 5787 5785 5784 5782 5780 5778 5776 5773 5771 5767 5765 5763 5760 5758 5756 5754 5753 5753 5753 5753 5752 5750 5746 5739
5855 5852 5848 5845 5841 5837 5832 5826 5821 5816 5811 5807 5804 5801 5798 5796 5793 5790 5788 5786 5784 5782 5779 5777 5775 5773 5770 5768 5765 5763 5761 5758 5756 5754 5753 5751 5751 5749 5748 5747 5746 5743 5740
5856 5853 5848 5844 5839 5833 5829 5824 5819 5816 5813 5809 5805 5801 5798 5795 5792 5789 5786 5784 5782 5780 5777 5775 5772 5770 5768 5765 5763 5760 5758 5756 5753 5752 5750 5748 5748 5746 5744 5742 5741 5739 5738
5852 5849 5844 5839 5835 5830 5827 5823 5819 5816 5814 5810 5805 5801 5797 5794 5791 5788 5785 5783 5780 5777 5775 5772 5769 5767 5765 5762 5760 5758 5756 5754 5752 5750 5748 5746 5744 5741 5740 5738 5736 5736 5736
5845 5842 5837 5834 5831 5827 5824 5821 5817 5815 5812 5808 5804 5799 5796 5793 5790 5787 5784 5781 5778 5774 5772 5769 5767 5764 5762 5759 5757 5755 5753 5751 5750 5748 5746 5744 5741 5738 5736 5734 5732 5731 5729
5835 5833 5830 5828 5826 5823 5819 5817 5814 5812 5809 5803 5800 5796 5794 5791 5788 5784 5781 5779 5775 5773 5769 5766 5764 5762 5759 5756 5753 5750 5749 5747 5746 5744 5743 5741 5738 5736 5733 5731 5728 5726 5724
5825 5826 5824 5821 5819 5816 5814 5812 5809 5808 5805 5799 5796 5794 5791 5787 5783 5780 5778 5774 5772 5770 5766 5763 5760 5757 5756 5751 5748 5745 5744 5743 5741 5739 5738 5736 5734 5732 5730 5727 5725 5723 5719
5818 5817 5817 5815 5813 5812 5810 5807 5805 5803 5799 5795 5792 5788 5786 5782 5780 5777 5773 5770 5767 5765 5762 5760 5757 5753 5750 5746 5744 5741 5739 5738 5737 5735 5733 5733 5733 5729 5726 5723 5722 5719 5717
5810 5810 5809 5809 5810 5810 5807 5804 5801 5798 5794 5790 5786 5783 5781 5778 5776 5772 5768 5766 5763 5760 5757 5755 5753 5749 5746 5742 5739 5736 5735 5734 5733 5731 5730 5727 5726 5725 5720 5718 5716 5715 5713
5802 5803 5803 5803 5803 5802 5801 5797 5794 5791 5787 5784 5780 5779 5776 5773 5770 5767 5764 5762 5759 5756 5753 5751 5749 5745 5741 5737 5734 5731 5730 5729 5728 5728 5727 5724 5721 5718 5715 5712 5710 5708 5708
5794 5793 5795 5795 5792 5792 5792 5788 5784 5781 5778 5776 5775 5773 5770 5768 5765 5762 5760 5758 5755 5752 5749 5747 5745 5741 5738 5732 5729 5726 5725 5724 5723 5723 5722 5719 5716 5713 5710 5707 5704 5701 5701
5784 5784 5783 5782 5781 5782 5781 5777 5774 5771 5771 5770 5768 5766 5763 5761 5760 5758 5755 5752 5749 5746 5743 5739 5738 5736 5733 5728 5724 5721 5719 5718 5717 5717 5716 5716 5712 5707 5704 5701 5699 5698 5696
5773 5773 5771 5770 5771 5772 5768 5766 5763 5763 5763 5761 5759 5757 5755 5754 5754 5750 5748 5745 5742 5738 5735 5732 5731 5731 5729 5725 5720 5716 5714 5712 5711 5711 5711 5709 5706 5702 5698 5696 5695 5693 5690
5760 5761 5760 5758 5759 5760 5758 5754 5755 5755 5753 5751 5750 5749 5748 5747 5746 5742 5739 5737 5734 5730 5728 5725 5724 5724 5724 5721 5716 5711 5708 5706 5704 5705 5703 5701 5699 5696 5693 5691 5689 5686 5685
5748 5749 5747 5746 5746 5748 5748 5746 5747 5746 5744 5742 5741 5740 5738 5737 5737 5734 5733 5729 5727 5724 5721 5719 5717 5717 5715 5713 5709 5705 5702 5698 5696 5695 5695 5694 5692 5689 5688 5686 5683 5682 5681
5736 5737 5735 5734 5735 5737 5737 5738 5738 5737 5734 5732 5732 5730 5730 5729 5726 5726 5725 5723 5722 5719 5715 5713 5712 5709 5706 5704 5701 5699 5696 5693 5690 5687 5687 5687 5685 5683 5682 5681 5680 5678 5677
5724 5724 5724 5724 5725 5726 5726 5727 5727 5726 5723 5721 5720 5720 5720 5719 5717 5715 5714 5713 5712 5710 5707 5705 5703 5702 5700 5697 5694 5692 5689 5686 5682 5680 5681 5681 5680 5678 5677 5675 5674 5673 5672